Location: Biltmore Gardens
(41.6070°N, 83.4666°W)
Time: 14:40:34
(UTC+00:00)

Helios 1B rocket - Pass Details

Date: 14 July 2020
Orbit: 574 x 584 km, 98.1° (Epoch: 12 August)

Event Time Altitude Azimuth Distance (km) Brightness Sun altitude
Rises 06:52:55 0° 1° (N) 2,805 7.1 -24.6°
Reaches altitude 10° 06:55:18 10° 350° (N) 1,899 5.9 -24.4°
Enters shadow 06:58:40 28° 295° (WNW) 1,105 3.8 -24.2°
